DW8424 Weather Reports


time (UTC)temp
C
wind
direction
speed
KPH
gust
KPH
rain 1hr
cm
rain 24hr
cm
rain mn
cm
humidity
%
barometer
mb
20260507171519 11 141 3.2 11.3 0.00 0.00 0.00 78 1015.8
20260507170025 11 120 1.6 8.0 0.00 0.00 0.00 78 1015.8
20260507164516 11 188 3.2 9.7 0.00 0.00 0.00 78 1016.0
20260507163015 11 195 3.2 8.0 0.00 0.00 0.00 77 1015.9
20260507161514 11 183 3.2 14.5 0.00 0.00 0.00 78 1015.9
20260507160016 11 93 4.8 11.3 0.00 0.00 0.00 76 1016.0
20260507154512 11 150 3.2 11.3 0.00 0.00 0.00 76 1016.0
20260507153018 12 229 3.2 8.0 0.00 0.00 0.00 75 1016.0
20260507151512 12 104 3.2 8.0 0.00 0.00 0.00 74 1016.0
20260507150011 12 82 3.2 16.1 0.00 0.00 0.00 74 1016.1
20260507144512 12 139 3.2 11.3 0.00 0.00 0.00 74 1016.1
20260507143009 12 79 8.0 19.3 0.00 0.00 0.00 73 1016.2
20260507141509 13 79 4.8 14.5 0.00 0.00 0.00 73 1016.2
20260507140008 13 126 4.8 11.3 0.00 0.00 0.00 71 1016.3
20260507134506 12 109 3.2 12.9 0.00 0.00 0.00 72 1016.3
20260507133006 12 134 6.4 12.9 0.00 0.00 0.00 72 1016.4
20260507131510 12 209 4.8 12.9 0.00 0.00 0.00 71 1016.3
20260507130004 12 253 3.2 14.5 0.00 0.00 0.00 71 1016.3
20260507124508 13 122 3.2 12.9 0.00 0.00 0.00 68 1016.4
20260507123002 12 92 3.2 17.7 0.00 0.00 0.00 69 1016.4
20260507121502 12 141 4.8 14.5 0.00 0.00 0.00 69 1016.4
20260507120005 12 236 3.2 11.3 0.00 0.00 0.00 69 1016.6
20260507114501 12 245 3.2 12.9 0.00 0.00 0.00 68 1016.6
20260507113102 13 120 1.6 14.5 0.00 0.00 0.00 66 1016.6
20260507111607 13 211 3.2 9.7 0.00 0.00 0.00 64 1016.8
20260507110110 12 191 3.2 14.5 0.00 0.00 0.00 63 1016.8
20260507104555 12 222 3.2 14.5 0.00 0.00 0.00 67 1016.8
20260507103055 12 170 6.4 16.1 0.00 0.00 0.00 64 1016.9
20260507101602 12 152 4.8 12.9 0.00 0.00 0.00 66 1016.9
20260507100049 11 311 4.8 11.3 0.00 0.00 0.00 69 1016.9
20260507094548 11 250 3.2 11.3 0.00 0.00 0.00 69 1017.0
20260507093051 11 313 4.8 12.9 0.00 0.00 0.00 70 1016.8
20260507091548 10 197 3.2 11.3 0.00 0.00 0.00 72 1016.8
20260507090039 10 118 1.6 11.3 0.00 0.00 0.00 72 1016.8
20260507084533 10 207 3.2 12.9 0.00 0.00 0.00 75 1016.9
20260507083033 10 198 1.6 8.0 0.00 0.00 0.00 77 1017.0
20260507081541 9 161 3.2 11.3 0.00 0.00 0.00 77 1017.0
20260507080027 9 128 1.6 8.0 0.00 0.00 0.00 79 1017.0
20260507074544 9 277 1.6 8.0 0.00 0.00 0.00 79 1016.9
20260507073024 8 140 1.6 8.0 0.00 0.00 0.00 79 1016.9
20260507071521 8 239 0.0 8.0 0.00 0.00 0.00 80 1017.0
20260507070022 8 98 3.2 8.0 0.00 0.00 0.00 79 1017.1
20260507064517 8 108 0.0 3.2 0.00 0.00 0.00 81 1016.9
20260507063023 8 90 0.0 4.8 0.00 0.00 0.00 81 1016.8
20260507061514 7 152 0.0 3.2 0.00 0.00 0.00 82 1016.7
20260507060011 7 349 0.0 3.2 0.00 0.00 0.00 84 1016.7
20260507054506 6 220 0.0 3.2 0.00 0.00 0.00 87 1016.5
20260507053003 5 233 0.0 1.6 0.00 0.00 0.00 90 1016.4
20260507051558 3 250 0.0 1.6 0.00 0.00 0.00 91 1016.4
20260507050058 2 238 0.0 0.0 0.00 0.00 0.00 91 1016.3
20260507044600 2 237 0.0 0.0 0.00 0.00 0.00 91 1016.3
20260507043054 1 252 0.0 0.0 0.00 0.00 0.00 91 1016.2
20260507041600 1 252 0.0 0.0 0.00 0.00 0.00 91 1016.3
20260507040051 1 252 0.0 0.0 0.00 0.00 0.00 92 1016.3
20260507034557 1 255 0.0 0.0 0.00 0.00 0.00 91 1016.4
20260507033053 1 255 0.0 0.0 0.00 0.00 0.00 91 1016.3
20260507031602 1 255 0.0 0.0 0.00 0.00 0.00 91 1016.4
20260507030053 1 255 0.0 0.0 0.00 0.00 0.00 91 1016.5
20260507024546 1 255 0.0 0.0 0.00 0.00 0.00 91 1016.6
20260507023042 1 255 0.0 0.0 0.00 0.00 0.00 91 1016.4
20260507021542 1 255 0.0 0.0 0.00 0.00 0.00 91 1016.4
20260507020042 1 255 0.0 1.6 0.00 0.00 0.00 90 1016.4
20260507014547 1 254 0.0 1.6 0.00 0.00 0.00 91 1016.2
20260507013043 1 255 0.0 1.6 0.00 0.00 0.00 91 1016.4
20260507011535 1 255 0.0 1.6 0.00 0.00 0.00 90 1016.5
20260507010036 1 255 0.0 1.6 0.00 0.00 0.00 90 1016.5
20260507004532 1 255 0.0 1.6 0.00 0.00 0.00 90 1016.4
20260507003029 2 256 0.0 0.0 0.00 0.00 0.00 90 1016.4
20260507001529 2 256 0.0 1.6 0.00 0.00 0.00 90 1016.5
20260507000035 2 256 0.0 1.6 0.00 0.00 0.00 90 1016.6
20260506234523 2 256 0.0 1.6 0.00 0.00 0.00 90 1016.6
20260506233021 2 223 0.0 1.6 0.00 0.00 0.00 90 1016.8
20260506231517 2 174 0.0 0.0 0.00 0.00 0.00 89 1016.8
20260506230014 3 174 0.0 0.0 0.00 0.00 0.00 89 1016.8
20260506224511 3 166 0.0 1.6 0.00 0.00 0.00 89 1016.7
20260506223009 3 166 0.0 1.6 0.00 0.00 0.00 88 1016.7
20260506221507 3 167 0.0 1.6 0.00 0.00 0.00 88 1016.7
20260506220015 3 167 0.0 0.0 0.00 0.00 0.00 87 1016.6
20260506214506 3 167 0.0 0.0 0.00 0.00 0.00 86 1016.6
20260506213002 4 167 0.0 0.0 0.00 0.00 0.00 86 1016.6
20260506211600 4 167 0.0 1.6 0.00 0.00 0.00 84 1016.6
20260506210058 5 97 0.0 1.6 0.00 0.00 0.00 80 1016.7
20260506204555 6 97 0.0 3.2 0.00 0.00 0.00 79 1016.6
20260506203055 6 91 0.0 4.8 0.00 0.00 0.00 78 1016.6
20260506201553 6 66 0.0 4.8 0.00 0.00 0.00 78 1016.5
20260506200052 6 92 1.6 6.4 0.00 0.00 0.00 78 1016.4
20260506194600 7 102 1.6 6.4 0.00 0.00 0.00 77 1016.3
20260506193102 7 89 1.6 6.4 0.00 0.00 0.00 77 1016.3
20260506191551 7 108 1.6 6.4 0.00 0.00 0.00 76 1016.4
20260506190051 7 79 0.0 8.0 0.00 0.00 0.00 77 1016.2
20260506184550 7 83 1.6 8.0 0.00 0.00 0.00 77 1016.2
20260506183050 7 123 1.6 8.0 0.00 0.00 0.00 76 1016.2
20260506181549 8 124 3.2 8.0 0.00 0.00 0.00 73 1016.1
20260506180100 8 77 4.8 8.0 0.00 0.00 0.00 71 1016.1
20260506174549 8 103 1.6 6.4 0.00 0.00 0.00 71 1016.1
20260506173051 8 136 1.6 8.0 0.00 0.00 0.00 71 1016.0